RYR3WPD LGTS-EIDW

Flight info

Callsign RYR3WPD
Flight time N/A
Altitude 34000
Route FSK UL608 DISOR DCT LONTA UL608 DOLEV DCT IRDIV/N0439F360 DCT PETOV DCT RENKA L610 STAUB/N0370F240 L610 UPALA/N0442F360 Z744 COSJE DCT ADKUV DCT BUB L608 COA L179 KEGIT L608 SASKI L179 SAWPE/N0363F240 Q63 OZZIL N80 ARPAK L9 NICXI M17 VATRY VATRY4L
Aircraft B738/M-SDE2E3FGHIRWXY/LB1

Departure

Time 2026-05-06 20:03
Airport Thessaloniki Macedonia International Airport (LGTS)

Arrival

Time N/A
Airport Dublin Airport (EIDW)
Time Latitude Longitude Altitude Speed Heading
2026-05-06 19:38 40.52402 22.97463 27 ft 0 kts 45°
2026-05-06 19:53 40.52401 22.97461 28 ft 2 kts 45°
2026-05-06 19:53 40.52390 22.97445 28 ft 2 kts 46°
2026-05-06 19:53 40.52378 22.97430 28 ft 2 kts 44°
2026-05-06 19:53 40.52366 22.97415 27 ft 2 kts 44°
2026-05-06 19:54 40.52354 22.97400 27 ft 2 kts 45°
2026-05-06 19:54 40.52343 22.97384 27 ft 2 kts 45°
2026-05-06 19:54 40.52331 22.97369 27 ft 2 kts 29°
2026-05-06 19:54 40.52315 22.97369 27 ft 2 kts 321°
2026-05-06 19:55 40.52303 22.97384 27 ft 2 kts 314°
2026-05-06 19:55 40.52299 22.97390 27 ft 0 kts 315°
2026-05-06 19:57 40.52300 22.97389 27 ft 1 kts 315°
2026-05-06 19:58 40.52323 22.97359 27 ft 9 kts 316°
2026-05-06 19:58 40.52381 22.97279 27 ft 15 kts 300°
2026-05-06 19:58 40.52402 22.97152 27 ft 15 kts 319°
2026-05-06 19:58 40.52504 22.97111 28 ft 16 kts 347°
2026-05-06 19:59 40.52607 22.97079 28 ft 15 kts 347°
2026-05-06 19:59 40.52713 22.97044 28 ft 16 kts 346°
2026-05-06 19:59 40.52823 22.97009 28 ft 17 kts 346°
2026-05-06 19:59 40.52933 22.96975 28 ft 15 kts 346°
2026-05-06 20:00 40.53043 22.96939 28 ft 17 kts 343°
2026-05-06 20:00 40.53056 22.96841 27 ft 14 kts 229°
2026-05-06 20:00 40.52969 22.96785 27 ft 15 kts 179°
2026-05-06 20:00 40.52936 22.96793 28 ft 0 kts 166°
2026-05-06 20:02 40.52784 22.96841 29 ft 50 kts 166°
2026-05-06 20:02 40.52237 22.97013 27 ft 110 kts 166°
2026-05-06 20:02 40.51320 22.97307 40 ft 162 kts 166°
2026-05-06 20:03 40.50134 22.97698 456 ft 178 kts 165°
2026-05-06 20:03 40.48898 22.98085 1086 ft 182 kts 167°
2026-05-06 20:03 40.47751 22.98417 2151 ft 167 kts 168°
2026-05-06 20:03 40.46539 22.98749 2588 ft 191 kts 169°
2026-05-06 20:04 40.45150 22.99127 2833 ft 215 kts 169°
2026-05-06 20:04 40.43608 22.99162 3128 ft 230 kts 199°
2026-05-06 20:04 40.42299 22.97929 3584 ft 243 kts 231°
2026-05-06 20:04 40.41601 22.95833 3933 ft 262 kts 261°
2026-05-06 20:05 40.41757 22.93447 4728 ft 266 kts 289°
2026-05-06 20:05 40.42790 22.91441 5535 ft 270 kts 316°
2026-05-06 20:05 40.44289 22.89933 5900 ft 273 kts 325°
2026-05-06 20:05 40.45909 22.88590 5977 ft 277 kts 327°
2026-05-06 20:06 40.47552 22.87283 5991 ft 275 kts 327°
2026-05-06 20:06 40.49181 22.85980 5998 ft 274 kts 327°
2026-05-06 20:06 40.50804 22.84666 5984 ft 274 kts 327°
2026-05-06 20:06 40.52414 22.83344 5996 ft 273 kts 326°
2026-05-06 20:07 40.54019 22.82010 5997 ft 273 kts 326°
2026-05-06 20:07 40.55625 22.80665 6010 ft 275 kts 326°
2026-05-06 20:07 40.57232 22.79309 6433 ft 280 kts 326°
2026-05-06 20:07 40.58870 22.77924 7314 ft 278 kts 326°
2026-05-06 20:08 40.60495 22.76545 8140 ft 279 kts 326°
2026-05-06 20:08 40.62139 22.75145 8911 ft 282 kts 326°
2026-05-06 20:08 40.63794 22.73732 9703 ft 285 kts 326°
2026-05-06 20:08 40.65468 22.72301 10400 ft 290 kts 326°
2026-05-06 20:09 40.67206 22.70813 10601 ft 313 kts 326°
2026-05-06 20:09 40.69096 22.69190 10818 ft 334 kts 326°
2026-05-06 20:09 40.71076 22.67491 11328 ft 343 kts 326°
2026-05-06 20:09 40.73089 22.65762 12030 ft 346 kts 326°
2026-05-06 20:10 40.75115 22.64022 12771 ft 349 kts 326°
2026-05-06 20:10 40.77157 22.62266 13477 ft 352 kts 326°
2026-05-06 20:10 40.79219 22.60491 14130 ft 356 kts 325°
2026-05-06 20:10 40.81303 22.58696 14787 ft 358 kts 325°
2026-05-06 20:11 40.83396 22.56891 15450 ft 360 kts 325°
2026-05-06 20:11 40.85470 22.55101 16092 ft 362 kts 325°
2026-05-06 20:11 40.87591 22.53269 16729 ft 365 kts 325°
2026-05-06 20:11 40.89727 22.51423 17365 ft 367 kts 325°
2026-05-06 20:12 40.91869 22.49570 17985 ft 370 kts 325°
2026-05-06 20:12 40.94032 22.47697 18565 ft 373 kts 324°
2026-05-06 20:12 40.96209 22.45811 19108 ft 375 kts 324°
2026-05-06 20:12 40.98400 22.43911 19653 ft 377 kts 324°
2026-05-06 20:13 41.00596 22.42006 20183 ft 379 kts 324°
2026-05-06 20:13 41.02806 22.40086 20715 ft 381 kts 324°
2026-05-06 20:13 41.05003 22.38176 21157 ft 385 kts 324°
2026-05-06 20:13 41.07252 22.36219 21648 ft 387 kts 324°
2026-05-06 20:14 41.09507 22.34256 22168 ft 389 kts 324°
2026-05-06 20:14 41.11770 22.32284 22659 ft 391 kts 324°
2026-05-06 20:14 41.14050 22.30295 23153 ft 393 kts 324°
2026-05-06 20:14 41.16341 22.28295 23645 ft 395 kts 324°
2026-05-06 20:15 41.18643 22.26284 24077 ft 397 kts 324°
2026-05-06 20:15 41.20959 22.24260 24532 ft 398 kts 324°
2026-05-06 20:15 41.23278 22.22230 24922 ft 401 kts 324°
2026-05-06 20:15 41.25616 22.20183 25296 ft 403 kts 324°
2026-05-06 20:16 41.27968 22.18121 25670 ft 405 kts 324°
2026-05-06 20:16 41.30334 22.16045 26070 ft 407 kts 324°
2026-05-06 20:16 41.32701 22.13965 26447 ft 409 kts 324°
2026-05-06 20:16 41.35083 22.11872 26791 ft 411 kts 324°
2026-05-06 20:17 41.37472 22.09770 27138 ft 413 kts 324°
2026-05-06 20:17 41.39847 22.07679 27487 ft 415 kts 324°
2026-05-06 20:17 41.42259 22.05553 27841 ft 416 kts 325°
2026-05-06 20:17 41.44687 22.03412 28166 ft 418 kts 325°
2026-05-06 20:18 41.47123 22.01261 28490 ft 420 kts 325°
2026-05-06 20:18 41.49566 21.99102 28817 ft 422 kts 325°
2026-05-06 20:18 41.52027 21.96925 29129 ft 424 kts 325°
2026-05-06 20:18 41.54463 21.94768 29523 ft 423 kts 325°
2026-05-06 20:19 41.56904 21.92606 30032 ft 420 kts 325°
2026-05-06 20:19 41.59329 21.90455 30457 ft 417 kts 325°
2026-05-06 20:19 41.61743 21.88312 30815 ft 416 kts 325°
2026-05-06 20:19 41.64150 21.86173 31157 ft 415 kts 325°
2026-05-06 20:20 41.66551 21.84037 31515 ft 414 kts 325°
2026-05-06 20:20 41.68944 21.81907 31894 ft 411 kts 324°
2026-05-06 20:20 41.71324 21.79786 32257 ft 409 kts 324°
2026-05-06 20:20 41.73668 21.77696 32584 ft 409 kts 324°
2026-05-06 20:21 41.76031 21.75586 32900 ft 407 kts 324°
2026-05-06 20:21 41.78386 21.73481 33242 ft 406 kts 324°
2026-05-06 20:21 41.80739 21.71377 33544 ft 405 kts 324°
2026-05-06 20:21 41.83086 21.69276 33850 ft 404 kts 324°
2026-05-06 20:22 41.85423 21.67183 34029 ft 402 kts 324°
2026-05-06 20:22 41.87721 21.65123 34019 ft 402 kts 324°
2026-05-06 20:22 41.92413 21.60907 34031 ft 410 kts 324°
2026-05-06 20:23 41.97208 21.56592 34032 ft 418 kts 324°
2026-05-06 20:23 42.02088 21.52194 34033 ft 426 kts 324°
2026-05-06 20:24 42.07048 21.47716 34028 ft 431 kts 324°
2026-05-06 20:24 42.12043 21.43198 34022 ft 433 kts 324°
2026-05-06 20:25 42.16828 21.38282 34018 ft 431 kts 313°
2026-05-06 20:25 42.20757 21.32174 34033 ft 430 kts 309°
2026-05-06 20:26 42.24578 21.26020 34033 ft 430 kts 309°
2026-05-06 20:26 42.28432 21.19849 34040 ft 429 kts 309°
2026-05-06 20:27 42.32292 21.13695 34042 ft 428 kts 309°
2026-05-06 20:27 42.36141 21.07555 34046 ft 427 kts 309°
2026-05-06 20:28 42.39976 21.01427 34047 ft 426 kts 309°
2026-05-06 20:28 42.43801 20.95301 34050 ft 425 kts 308°
2026-05-06 20:29 42.47616 20.89175 34044 ft 425 kts 308°
2026-05-06 20:29 42.51426 20.83048 34053 ft 425 kts 308°
2026-05-06 20:30 42.57108 20.73884 34051 ft 424 kts 308°
2026-05-06 20:31 42.60903 20.67747 34049 ft 424 kts 308°
2026-05-06 20:31 42.64694 20.61605 34038 ft 424 kts 308°
2026-05-06 20:32 42.68480 20.55457 34036 ft 424 kts 307°
2026-05-06 20:32 42.72244 20.49332 34041 ft 424 kts 307°
2026-05-06 20:33 42.76019 20.43176 34044 ft 423 kts 307°
2026-05-06 20:33 42.79787 20.37019 34048 ft 423 kts 307°
2026-05-06 20:34 42.83562 20.30875 34059 ft 423 kts 309°
2026-05-06 20:34 42.87685 20.25108 34050 ft 426 kts 312°
2026-05-06 20:35 42.91888 20.19481 34051 ft 425 kts 312°
2026-05-06 20:35 42.96099 20.13810 34060 ft 425 kts 311°
2026-05-06 20:36 43.00294 20.08104 34052 ft 425 kts 311°
2026-05-06 20:36 43.04471 20.02390 34051 ft 425 kts 311°
2026-05-06 20:37 43.08654 19.96652 34054 ft 425 kts 311°
2026-05-06 20:37 43.12829 19.90914 34054 ft 426 kts 311°
2026-05-06 20:38 43.17014 19.85150 34059 ft 426 kts 310°
2026-05-06 20:38 43.21166 19.79420 34056 ft 427 kts 310°
2026-05-06 20:39 43.25352 19.73632 34045 ft 427 kts 310°
2026-05-06 20:39 43.28833 19.68808 34038 ft 428 kts 310°
2026-05-06 20:40 43.33026 19.62988 34035 ft 428 kts 310°
2026-05-06 20:40 43.37204 19.57178 34048 ft 427 kts 310°
2026-05-06 20:41 43.41385 19.51351 34045 ft 427 kts 310°
2026-05-06 20:41 43.45556 19.45525 34033 ft 426 kts 310°
2026-05-06 20:42 43.49715 19.39702 34016 ft 426 kts 310°
2026-05-06 20:42 43.53849 19.33905 34043 ft 426 kts 309°
2026-05-06 20:43 43.58002 19.28068 34037 ft 425 kts 309°
2026-05-06 20:43 43.62143 19.22234 34040 ft 426 kts 309°
2026-05-06 20:44 43.66263 19.16420 34022 ft 426 kts 309°
2026-05-06 20:44 43.70408 19.10556 34019 ft 426 kts 309°
2026-05-06 20:45 43.74546 19.04692 34040 ft 425 kts 309°
2026-05-06 20:45 43.78677 18.98825 34025 ft 426 kts 309°
2026-05-06 20:46 43.82812 18.92939 34017 ft 426 kts 309°
2026-05-06 20:46 43.86945 18.87044 34023 ft 426 kts 309°
2026-05-06 20:47 43.91047 18.81180 34021 ft 427 kts 309°
2026-05-06 20:47 43.95182 18.75256 34017 ft 427 kts 309°
2026-05-06 20:48 43.99312 18.69328 34019 ft 427 kts 309°
2026-05-06 20:48 44.03450 18.63375 34023 ft 428 kts 309°
2026-05-06 20:49 44.07586 18.57412 34026 ft 428 kts 309°
2026-05-06 20:49 44.11695 18.51477 34022 ft 428 kts 308°
2026-05-06 20:50 44.15832 18.45487 34004 ft 428 kts 308°
2026-05-06 20:50 44.19959 18.39499 33999 ft 428 kts 308°
2026-05-06 20:51 44.24085 18.33499 33995 ft 429 kts 308°
2026-05-06 20:51 44.28230 18.27456 33985 ft 430 kts 308°
2026-05-06 20:52 44.32340 18.21455 33992 ft 430 kts 308°
2026-05-06 20:52 44.36478 18.15399 33977 ft 431 kts 308°
2026-05-06 20:53 44.40623 18.09319 33971 ft 431 kts 308°
2026-05-06 20:53 44.44765 18.03231 33970 ft 431 kts 308°
2026-05-06 20:54 44.48900 17.97139 33965 ft 431 kts 308°
2026-05-06 20:54 44.53003 17.91080 33970 ft 431 kts 308°
2026-05-06 20:55 44.57131 17.84972 33965 ft 431 kts 308°
2026-05-06 20:55 44.61255 17.78856 33959 ft 432 kts 307°
2026-05-06 20:56 44.65385 17.72717 33952 ft 432 kts 307°
2026-05-06 20:56 44.69518 17.66560 33967 ft 433 kts 307°
2026-05-06 20:57 44.73654 17.60385 33957 ft 434 kts 307°
2026-05-06 20:57 44.77777 17.54216 33966 ft 434 kts 307°
2026-05-06 20:58 44.81914 17.48012 33962 ft 435 kts 307°
2026-05-06 20:58 44.86063 17.41776 33960 ft 435 kts 307°
2026-05-06 20:59 44.90197 17.35547 33976 ft 435 kts 307°
2026-05-06 20:59 44.94333 17.29302 33972 ft 435 kts 306°
2026-05-06 21:00 44.98437 17.23090 33965 ft 435 kts 306°
2026-05-06 21:00 45.02566 17.16829 33957 ft 435 kts 306°
2026-05-06 21:01 45.06867 17.10756 33956 ft 443 kts 314°
2026-05-06 21:01 45.12098 17.05885 33967 ft 452 kts 321°
2026-05-06 21:02 45.17474 17.01203 33942 ft 453 kts 321°
2026-05-06 21:02 45.22834 16.96484 33948 ft 454 kts 321°
2026-05-06 21:03 45.28191 16.91711 33947 ft 455 kts 321°
2026-05-06 21:03 45.33512 16.86941 33940 ft 455 kts 322°
2026-05-06 21:04 45.38873 16.82122 33947 ft 456 kts 322°
2026-05-06 21:04 45.44244 16.77285 33947 ft 457 kts 322°
2026-05-06 21:05 45.49627 16.72427 33939 ft 458 kts 322°
2026-05-06 21:05 45.55016 16.67553 33950 ft 459 kts 323°
2026-05-06 21:06 45.60385 16.62686 33940 ft 459 kts 323°
2026-05-06 21:06 45.65788 16.57777 33943 ft 460 kts 323°
2026-05-06 21:07 45.71209 16.52839 33942 ft 461 kts 323°
2026-05-06 21:07 45.76622 16.47898 33935 ft 461 kts 323°
2026-05-06 21:08 45.82006 16.42971 33940 ft 462 kts 323°
2026-05-06 21:08 45.87437 16.37990 33944 ft 463 kts 322°
2026-05-06 21:09 45.92871 16.32994 33939 ft 464 kts 322°
2026-05-06 21:09 45.98309 16.27982 33942 ft 465 kts 322°
2026-05-06 21:10 46.03764 16.22943 33939 ft 465 kts 322°
2026-05-06 21:10 46.09180 16.17929 33934 ft 466 kts 321°
2026-05-06 21:11 46.14642 16.12860 33931 ft 466 kts 321°